Location: Unspecified
(0.0000°N, 0.0000°E)
Time: 12:39:43
(UTC+00:00)

Transit 2A - All Passes

Search period start: 30 June 2015 00:00
Search period end: 10 July 2015 00:00
Orbit: 595 x 966 km, 66.7° (Epoch: 29 June)

Date Brightness Start Highest point End Pass type
(mag) Time Alt. Az. Time Alt. Az. Time Alt. Az.
30 Jun - 01:44:47 10° NNW 01:49:07 55° WSW 01:53:18 10° S night (unlit)
30 Jun - 12:34:57 10° S 12:40:14 31° ESE 12:45:48 10° NE daylight
30 Jun - 14:18:21 10° WSW 14:23:27 25° WNW 14:28:25 10° NNW daylight
01 Jul - 01:10:55 10° NNW 01:15:20 78° ENE 01:19:37 10° SSE night (unlit)
01 Jul - 12:02:13 10° SSE 12:06:22 20° ESE 12:10:54 10° ENE daylight
01 Jul - 13:43:47 10° SW 13:49:34 39° WNW 13:55:24 10° N daylight
02 Jul - 00:37:24 10° N 00:41:33 40° ENE 00:45:36 10° SE night (unlit)
02 Jul - 11:30:38 10° SE 11:32:26 12° ESE 11:34:49 10° E daylight
02 Jul - 13:09:35 10° SSW 13:15:44 62° WNW 13:22:01 10° N daylight
03 Jul - 00:04:19 10° NNE 00:07:42 22° ENE 00:11:07 10° ESE night (unlit)
03 Jul - 01:48:25 10° W 01:50:44 14° WSW 01:52:47 10° SW night (unlit)
03 Jul - 12:35:42 10° SSW 12:41:56 86° ESE 12:48:20 10° NNE daylight
03 Jul - 23:32:09 10° NE 23:33:47 12° ENE 23:35:42 10° E night (unlit)
04 Jul - 01:13:16 10° NW 01:16:53 24° WSW 01:20:21 10° SSW night (unlit)
04 Jul - 12:02:05 10° S 12:08:08 55° ESE 12:14:22 10° NNE daylight
04 Jul - 13:48:18 10° W 13:51:31 14° WNW 13:54:14 10° NW daylight
05 Jul - 00:38:52 10° NW 00:43:05 45° WSW 00:47:11 10° S night (unlit)
05 Jul - 11:28:47 10° S 11:34:19 35° ESE 11:40:05 10° NE daylight
05 Jul - 13:12:43 10° WSW 13:17:34 22° WNW 13:22:10 10° NNW daylight
06 Jul - 00:04:54 10° NNW 00:09:18 88° WSW 00:13:36 10° SSE night (unlit)
06 Jul - 10:55:52 10° SSE 11:00:27 22° ESE 11:05:23 10° ENE daylight
06 Jul - 12:38:00 10° SW 12:43:40 34° WNW 12:49:17 10° N daylight
06 Jul - 23:31:17 10° N 23:35:31 48° ENE 23:39:40 10° SE night (unlit)
07 Jul - 10:23:44 10° SE 10:26:32 14° ESE 10:29:51 10° E daylight
07 Jul - 12:03:43 10° SSW 12:09:49 54° WNW 12:15:59 10° N daylight
07 Jul - 22:58:03 10° NNE 23:01:41 26° ENE 23:05:20 10° SE night (unlit)
08 Jul - 00:43:14 10° W 00:44:44 11° WSW 00:45:56 10° SW night (unlit)
08 Jul - 11:29:44 10° SSW 11:36:00 84° WNW 11:42:23 10° NNE daylight
08 Jul - 22:25:30 10° NE 22:27:48 14° ENE 22:30:18 10° ESE night (unlit)
09 Jul - 00:07:32 10° WNW 00:10:52 21° WSW 00:14:02 10° SSW night (unlit)
09 Jul - 10:56:03 10° S 11:02:12 63° ESE 11:08:31 10° NNE daylight
09 Jul - 12:43:18 10° W 12:45:37 11° WNW 12:47:21 10° NW daylight
09 Jul - 23:32:59 10° NW 23:37:02 37° WSW 23:41:01 10° S night (unlit)
